GFSMA_prec_pwat_093.txt.gz
Precipitable_Water
1.09 1.26 1.36 1.52 1.50 1.54 1.49 1.49 1.44 1.46 1.51 1.53 1.54 1.48 1.40 1.41 1.52 1.48 1.42 1.21 1.20 1.12 1.05 0.97 1.02 0.96 0.87 0.86 0.83 0.82 0.76 0.73 0.74 0.72 0.70 0.70 0.68 0.65 0.62 0.61 0.60 0.59 0.60
1.10 1.23 1.33 1.46 1.52 1.56 1.53 1.45 1.46 1.43 1.48 1.48 1.48 1.49 1.45 1.42 1.43 1.41 1.27 1.17 1.15 1.06 0.97 0.94 0.95 0.91 0.85 0.82 0.78 0.76 0.72 0.76 0.76 0.72 0.68 0.68 0.65 0.62 0.62 0.61 0.61 0.61 0.62
1.10 1.21 1.29 1.41 1.56 1.57 1.54 1.55 1.49 1.44 1.45 1.46 1.47 1.48 1.45 1.47 1.43 1.39 1.34 1.20 1.13 1.03 0.94 0.91 0.94 0.91 0.88 0.86 0.80 0.76 0.74 0.77 0.72 0.71 0.68 0.67 0.64 0.63 0.64 0.66 0.65 0.63 0.63
1.09 1.14 1.22 1.26 1.44 1.50 1.51 1.50 1.47 1.43 1.42 1.45 1.46 1.50 1.48 1.46 1.47 1.37 1.23 1.15 1.08 0.98 0.95 0.89 0.89 0.88 0.89 0.87 0.82 0.78 0.78 0.72 0.70 0.70 0.70 0.67 0.66 0.68 0.70 0.70 0.71 0.71 0.71
1.04 1.09 1.17 1.23 1.33 1.40 1.45 1.46 1.46 1.44 1.42 1.40 1.46 1.50 1.50 1.47 1.41 1.31 1.15 1.08 1.04 0.93 0.91 0.93 0.90 0.91 0.89 0.87 0.82 0.79 0.76 0.73 0.72 0.71 0.70 0.68 0.69 0.71 0.73 0.74 0.76 0.77 0.78
1.00 1.03 1.11 1.19 1.26 1.25 1.37 1.42 1.42 1.43 1.38 1.39 1.48 1.49 1.47 1.42 1.39 1.30 1.12 1.04 0.99 0.86 0.86 0.88 0.95 0.95 0.89 0.86 0.85 0.81 0.79 0.78 0.76 0.76 0.74 0.72 0.72 0.75 0.77 0.79 0.81 0.84 0.85
0.96 0.96 1.04 1.12 1.18 1.15 1.22 1.31 1.31 1.26 1.34 1.43 1.38 1.39 1.37 1.34 1.31 1.29 1.11 0.98 0.91 0.87 0.80 0.88 0.95 0.95 0.91 0.85 0.84 0.83 0.84 0.83 0.82 0.80 0.79 0.78 0.80 0.81 0.81 0.86 0.87 0.87 0.88
0.96 0.94 1.00 1.04 1.10 1.11 1.16 1.18 1.19 1.16 1.29 1.41 1.30 1.25 1.10 1.16 1.22 1.22 1.08 0.92 0.89 0.87 0.84 0.88 0.90 0.93 0.90 0.85 0.82 0.83 0.84 0.86 0.86 0.84 0.83 0.83 0.84 0.86 0.90 0.91 0.92 0.92 0.92
0.97 0.96 1.00 1.02 1.07 1.11 1.07 1.11 1.18 1.19 1.16 1.34 1.39 1.23 1.04 0.98 1.09 1.19 1.02 0.96 0.91 0.92 0.91 0.91 0.93 0.97 0.96 0.90 0.82 0.80 0.83 0.86 0.90 0.91 0.90 0.88 0.91 0.95 0.96 0.97 0.99 0.98 0.97
0.98 0.96 1.01 1.07 1.14 1.20 1.19 1.21 1.21 1.25 1.23 1.23 1.32 1.32 1.27 1.17 1.01 0.93 0.94 0.95 0.95 0.94 0.92 0.95 0.97 1.01 1.00 0.96 0.91 0.93 0.89 0.84 0.87 0.93 0.97 0.96 0.98 1.00 1.03 1.05 1.07 1.07 1.08
0.95 0.94 1.07 1.16 1.23 1.29 1.32 1.28 1.21 1.21 1.25 1.22 1.22 1.22 1.21 1.17 1.13 1.00 0.79 0.80 0.93 0.97 1.00 0.97 1.02 1.05 1.03 0.96 0.95 0.99 0.99 0.98 0.93 0.87 0.87 0.97 1.07 1.08 1.07 1.07 1.08 1.10 1.15
0.91 1.01 1.11 1.19 1.23 1.28 1.33 1.38 1.31 1.26 1.38 1.29 1.32 1.29 1.20 1.11 1.08 1.02 0.86 0.83 0.79 0.91 0.99 1.06 1.05 1.06 1.04 1.04 1.03 1.02 1.02 1.01 0.98 0.94 0.92 0.93 0.98 1.05 1.08 1.07 1.12 1.14 1.16
0.88 0.99 1.09 1.17 1.26 1.28 1.33 1.41 1.39 1.34 1.29 1.26 1.34 1.30 1.27 1.20 1.14 1.08 0.97 0.89 0.89 0.96 0.98 1.04 1.05 1.05 1.04 1.02 1.00 1.00 1.00 0.97 0.96 0.96 0.99 0.99 0.99 1.01 1.02 1.04 1.11 1.16 1.19
0.87 1.01 1.05 1.08 1.12 1.23 1.31 1.39 1.40 1.38 1.33 1.41 1.35 1.35 1.31 1.24 1.23 1.12 1.06 1.02 0.96 1.01 1.00 0.96 1.11 1.09 1.05 1.04 1.03 1.05 1.05 1.08 1.08 1.09 1.06 1.06 1.06 1.07 1.10 1.11 1.11 1.12 1.16
0.97 1.00 1.02 1.01 1.09 1.17 1.29 1.38 1.40 1.41 1.37 1.38 1.35 1.38 1.34 1.28 1.25 1.24 1.20 1.10 1.01 0.91 0.94 1.08 1.11 1.20 1.24 1.25 1.25 1.26 1.20 1.19 1.20 1.20 1.18 1.17 1.17 1.13 1.13 1.13 1.14 1.14 1.15
0.98 1.01 1.02 1.03 1.05 1.13 1.24 1.37 1.38 1.41 1.38 1.38 1.40 1.36 1.35 1.27 1.26 1.20 1.23 1.17 1.18 1.04 0.87 1.06 1.09 1.16 1.19 1.25 1.28 1.25 1.27 1.26 1.24 1.22 1.22 1.20 1.20 1.17 1.15 1.18 1.16 1.11 1.09
1.01 0.99 1.00 1.01 1.03 1.10 1.26 1.32 1.36 1.37 1.35 1.37 1.37 1.35 1.30 1.32 1.27 1.22 1.24 1.23 1.15 1.11 1.01 1.04 1.10 1.12 1.10 1.09 1.14 1.22 1.25 1.24 1.23 1.23 1.21 1.22 1.20 1.18 1.18 1.17 1.16 1.11 1.09
0.99 0.97 0.99 0.98 1.02 1.09 1.20 1.29 1.30 1.33 1.32 1.29 1.34 1.32 1.31 1.31 1.25 1.24 1.22 1.13 1.14 1.08 1.05 0.94 0.99 1.00 1.04 1.13 1.17 1.17 1.18 1.21 1.18 1.11 1.08 1.13 1.11 1.11 1.08 1.09 1.07 1.08 1.07
1.00 0.99 0.98 0.97 1.01 1.07 1.11 1.21 1.27 1.29 1.31 1.32 1.33 1.28 1.30 1.26 1.20 1.20 1.16 1.12 1.13 1.15 1.14 1.07 1.01 1.15 1.14 1.12 1.07 1.11 1.08 1.10 1.14 1.17 1.11 1.08 1.07 1.06 1.10 1.09 1.09 1.09 1.09
1.01 0.98 0.99 0.99 1.01 1.04 1.10 1.11 1.16 1.22 1.27 1.29 1.30 1.30 1.28 1.23 1.19 1.19 1.16 1.13 1.13 1.11 1.11 1.04 1.02 1.03 1.05 1.14 1.13 1.01 0.99 1.06 1.04 1.07 1.09 1.08 1.11 1.10 1.10 1.11 1.12 1.12 1.11
1.01 0.99 0.95 0.95 0.97 0.99 1.00 1.06 1.11 1.11 1.12 1.15 1.24 1.24 1.23 1.22 1.23 1.23 1.18 1.12 1.11 1.06 1.00 0.95 0.90 0.96 0.96 0.94 0.92 0.96 0.95 1.01 1.02 1.07 1.08 1.06 1.06 1.06 1.03 1.04 1.02 1.00 1.00
0.98 0.98 0.95 0.93 0.90 0.93 0.97 1.00 1.06 1.07 1.10 1.06 1.05 1.10 1.12 1.15 1.15 1.12 1.09 1.05 1.05 1.05 0.98 0.95 0.95 0.87 0.89 0.91 0.97 0.99 0.99 0.95 0.90 0.99 0.99 0.95 0.98 0.93 0.95 0.96 0.93 0.88 0.88
0.97 0.95 0.93 0.90 0.89 0.90 0.94 0.98 1.00 0.98 0.96 0.96 0.96 0.96 0.95 0.94 0.94 0.97 0.97 0.97 1.00 1.00 1.02 1.01 0.96 0.94 0.92 0.95 0.94 0.92 0.92 0.90 0.89 0.92 0.90 0.84 0.89 0.76 0.77 0.84 0.73 0.67 0.64
0.94 0.91 0.92 0.91 0.89 0.89 0.92 0.95 0.97 0.95 0.93 0.92 0.93 0.93 0.95 0.94 0.95 0.95 0.94 0.94 0.93 0.94 0.96 0.96 0.95 0.93 0.94 0.94 0.93 0.93 0.90 0.86 0.83 0.75 0.75 0.59 0.66 0.55 0.56 0.55 0.51 0.48 0.45
0.91 0.89 0.90 0.90 0.89 0.90 0.95 0.97 0.99 0.96 0.93 0.91 0.92 0.94 0.95 0.95 0.95 0.95 0.93 0.91 0.90 0.91 0.94 0.93 0.91 0.89 0.86 0.84 0.80 0.76 0.67 0.57 0.50 0.47 0.45 0.42 0.40 0.38 0.41 0.41 0.43 0.43 0.42
0.87 0.87 0.86 0.86 0.86 0.87 0.94 0.97 0.96 0.97 0.94 0.91 0.91 0.91 0.93 0.93 0.93 0.92 0.91 0.87 0.85 0.84 0.83 0.84 0.83 0.74 0.72 0.60 0.54 0.47 0.44 0.38 0.37 0.34 0.35 0.35 0.35 0.35 0.32 0.41 0.41 0.40 0.37

GFSMA_prec_pwat_096.txt.gz
Precipitable_Water
0.94 1.02 1.05 1.16 1.28 1.40 1.47 1.47 1.49 1.46 1.47 1.44 1.54 1.56 1.55 1.45 1.43 1.49 1.53 1.58 1.49 1.40 1.39 1.26 1.15 1.06 1.10 1.03 0.94 0.91 0.88 0.87 0.75 0.72 0.71 0.71 0.69 0.65 0.63 0.61 0.58 0.55 0.56
0.98 1.01 1.03 1.12 1.24 1.41 1.51 1.55 1.49 1.45 1.47 1.44 1.50 1.60 1.55 1.54 1.44 1.41 1.53 1.50 1.42 1.30 1.21 1.12 1.04 1.05 1.05 0.95 0.91 0.90 0.87 0.80 0.76 0.71 0.72 0.71 0.68 0.64 0.61 0.60 0.60 0.59 0.61
1.05 1.04 1.04 1.11 1.20 1.41 1.52 1.59 1.56 1.51 1.47 1.50 1.47 1.52 1.54 1.55 1.51 1.46 1.55 1.48 1.36 1.17 1.12 1.03 0.97 1.00 0.97 0.92 0.88 0.85 0.81 0.78 0.77 0.74 0.72 0.70 0.68 0.65 0.63 0.64 0.63 0.64 0.66
1.14 1.08 1.01 1.07 1.18 1.29 1.46 1.52 1.52 1.47 1.47 1.40 1.42 1.47 1.49 1.57 1.54 1.46 1.46 1.45 1.32 1.17 1.09 0.97 0.94 0.95 0.89 0.87 0.85 0.80 0.80 0.76 0.78 0.75 0.70 0.69 0.67 0.66 0.67 0.69 0.69 0.70 0.70
1.16 1.11 1.03 1.06 1.14 1.18 1.30 1.44 1.47 1.49 1.43 1.43 1.41 1.46 1.48 1.53 1.54 1.50 1.47 1.43 1.28 1.15 1.00 0.95 0.93 0.92 0.88 0.87 0.81 0.83 0.82 0.79 0.76 0.77 0.73 0.72 0.71 0.72 0.73 0.74 0.74 0.74 0.76
1.14 1.13 1.05 1.01 1.09 1.13 1.18 1.32 1.39 1.48 1.43 1.41 1.44 1.40 1.45 1.53 1.55 1.49 1.47 1.40 1.22 1.09 1.00 0.91 0.89 0.90 0.89 0.87 0.86 0.87 0.85 0.80 0.79 0.79 0.79 0.75 0.74 0.75 0.76 0.75 0.76 0.78 0.81
1.13 1.14 1.02 0.99 1.06 1.08 1.11 1.19 1.26 1.33 1.35 1.44 1.31 1.34 1.40 1.48 1.49 1.49 1.46 1.31 1.21 1.04 0.97 0.88 0.88 0.89 0.90 0.88 0.88 0.91 0.86 0.83 0.80 0.78 0.80 0.79 0.78 0.78 0.78 0.79 0.79 0.84 0.87
1.12 1.15 1.00 0.93 1.00 1.04 1.06 1.09 1.13 1.16 1.22 1.31 1.15 1.21 1.14 1.23 1.38 1.44 1.40 1.29 1.19 1.03 0.94 0.86 0.86 0.89 0.90 0.90 0.88 0.85 0.87 0.86 0.83 0.82 0.82 0.80 0.79 0.81 0.82 0.84 0.87 0.91 0.94
1.12 1.19 1.06 0.94 0.98 1.02 1.00 1.06 1.08 1.08 1.02 1.17 1.20 1.12 1.06 1.02 1.19 1.33 1.34 1.29 1.17 0.94 0.88 0.83 0.84 0.88 0.89 0.91 0.89 0.84 0.83 0.82 0.84 0.84 0.83 0.83 0.84 0.88 0.89 0.90 0.94 0.95 0.96
1.19 1.19 1.10 0.96 0.99 1.01 1.04 1.10 1.18 1.12 1.07 0.99 1.12 1.26 1.25 1.20 1.08 1.04 1.26 1.26 1.15 0.93 0.90 0.90 0.88 0.91 0.95 0.96 0.92 0.85 0.82 0.82 0.81 0.85 0.86 0.88 0.88 0.90 0.95 0.98 0.99 1.03 1.04
1.16 1.16 1.09 0.98 1.00 1.05 1.12 1.20 1.22 1.22 1.22 1.15 1.11 1.16 1.24 1.21 1.22 1.11 1.02 1.12 1.15 0.98 0.95 0.94 0.93 0.97 1.01 0.97 0.95 0.90 0.90 0.92 0.89 0.84 0.88 0.92 0.96 0.98 1.02 1.06 1.06 1.06 1.05
1.08 1.14 1.00 0.99 1.06 1.09 1.16 1.23 1.27 1.28 1.25 1.21 1.21 1.15 1.22 1.13 1.12 1.12 1.05 1.06 0.94 0.91 0.95 0.98 0.95 0.97 1.01 1.00 1.02 1.00 0.97 0.98 0.97 0.97 0.94 0.93 0.92 1.00 1.10 1.11 1.08 1.09 1.07
1.06 1.02 0.87 0.98 1.08 1.13 1.20 1.25 1.30 1.31 1.33 1.20 1.19 1.17 1.28 1.24 1.22 1.18 1.10 1.03 0.93 0.95 0.97 1.02 1.02 1.02 1.05 1.07 1.07 1.03 1.03 1.02 1.00 1.01 0.99 0.97 0.97 0.97 1.01 1.04 1.05 1.06 1.10
1.08 0.91 0.93 1.05 1.08 1.14 1.19 1.25 1.28 1.30 1.35 1.31 1.23 1.30 1.27 1.28 1.27 1.22 1.13 1.02 0.92 0.93 0.98 0.92 1.06 1.06 1.10 1.08 1.06 1.05 1.05 1.04 1.03 1.02 1.02 1.07 1.06 1.06 1.07 1.07 1.08 1.10 1.12
1.05 0.87 0.93 1.01 1.05 1.09 1.13 1.20 1.25 1.25 1.34 1.31 1.32 1.31 1.26 1.30 1.31 1.27 1.20 1.10 0.94 0.87 0.90 0.97 0.99 1.15 1.13 1.09 1.06 1.09 1.10 1.12 1.12 1.15 1.17 1.20 1.20 1.21 1.20 1.20 1.18 1.16 1.15
0.99 0.87 0.94 1.00 1.00 1.05 1.08 1.12 1.17 1.33 1.36 1.34 1.38 1.29 1.33 1.34 1.32 1.29 1.23 1.18 1.14 1.04 0.91 1.08 1.10 1.18 1.15 1.17 1.21 1.20 1.21 1.27 1.24 1.23 1.23 1.22 1.24 1.24 1.21 1.21 1.22 1.22 1.20
0.94 0.88 0.95 1.00 1.02 1.03 1.06 1.13 1.26 1.34 1.33 1.36 1.37 1.31 1.31 1.36 1.30 1.29 1.27 1.24 1.17 1.12 0.95 1.03 1.15 1.20 1.18 1.17 1.20 1.26 1.22 1.17 1.22 1.28 1.30 1.29 1.25 1.22 1.22 1.21 1.20 1.19 1.19
0.99 0.94 0.99 1.00 1.00 1.01 1.06 1.14 1.22 1.32 1.30 1.31 1.33 1.34 1.32 1.35 1.31 1.29 1.26 1.23 1.19 1.13 1.08 1.01 1.08 1.08 1.12 1.16 1.20 1.18 1.18 1.25 1.30 1.29 1.25 1.21 1.19 1.16 1.10 1.12 1.11 1.11 1.08
1.01 0.97 0.98 0.96 0.96 1.00 1.05 1.11 1.17 1.24 1.30 1.32 1.34 1.34 1.32 1.32 1.27 1.27 1.26 1.21 1.23 1.21 1.16 1.07 1.02 1.10 1.11 1.14 1.14 1.16 1.14 1.17 1.18 1.16 1.17 1.13 1.08 1.06 1.05 1.06 1.03 1.03 1.05
1.06 1.01 1.00 0.99 1.00 1.03 1.06 1.10 1.14 1.15 1.25 1.29 1.32 1.32 1.34 1.31 1.26 1.25 1.24 1.20 1.20 1.15 1.12 1.06 1.06 1.07 1.10 1.12 1.11 1.06 1.07 1.16 1.12 1.11 1.07 1.03 1.03 1.00 1.01 1.04 1.03 1.06 1.05
1.06 1.03 0.98 0.98 0.99 1.00 1.01 1.05 1.08 1.10 1.10 1.14 1.25 1.28 1.28 1.30 1.30 1.27 1.23 1.19 1.17 1.13 1.09 1.04 1.03 1.06 1.04 1.02 1.01 1.07 1.06 1.04 0.97 0.95 0.94 0.97 0.97 1.00 1.03 1.02 1.02 0.99 0.97
1.05 0.99 0.97 0.95 0.95 0.96 0.99 1.02 1.05 1.05 1.07 1.07 1.04 1.12 1.20 1.22 1.21 1.21 1.21 1.19 1.18 1.12 1.06 1.04 1.02 0.97 0.94 0.93 0.96 0.92 0.90 0.87 0.84 0.97 0.96 0.94 0.97 0.93 0.93 0.94 0.93 0.92 0.90
1.08 1.00 0.93 0.94 0.94 0.93 0.95 0.99 1.00 1.00 1.01 1.00 1.02 1.03 1.05 1.09 1.11 1.11 1.11 1.12 1.12 1.12 1.06 1.04 0.95 0.91 0.86 0.92 0.93 0.90 0.92 0.94 0.88 0.92 0.92 0.86 0.90 0.86 0.88 0.83 0.83 0.72 0.72
1.02 1.03 0.96 0.91 0.91 0.91 0.93 0.93 0.96 0.96 0.95 0.94 0.95 0.97 0.99 1.00 1.01 1.00 0.97 0.95 0.94 0.95 0.93 0.93 0.91 0.92 0.93 0.97 0.97 0.96 0.94 0.91 0.89 0.87 0.87 0.77 0.78 0.71 0.65 0.62 0.58 0.51 0.47
0.99 0.97 0.94 0.96 0.89 0.89 0.92 0.92 0.93 0.92 0.90 0.92 0.94 0.92 0.90 0.89 0.91 0.91 0.89 0.88 0.88 0.88 0.91 0.94 0.93 0.92 0.93 0.93 0.93 0.91 0.84 0.80 0.74 0.68 0.66 0.56 0.49 0.45 0.45 0.44 0.46 0.45 0.43
0.88 0.91 0.91 0.90 0.87 0.88 0.91 0.91 0.90 0.89 0.89 0.88 0.90 0.91 0.91 0.89 0.88 0.88 0.87 0.86 0.83 0.85 0.85 0.85 0.84 0.85 0.83 0.83 0.81 0.79 0.73 0.62 0.54 0.41 0.39 0.40 0.37 0.36 0.34 0.42 0.40 0.36 0.32

GFSMA_prec_pwat_102.txt.gz
Precipitable_Water
1.10 1.10 1.09 1.13 1.14 1.17 1.17 1.21 1.24 1.28 1.32 1.42 1.53 1.49 1.48 1.48 1.51 1.64 1.64 1.58 1.60 1.65 1.72 1.67 1.63 1.61 1.55 1.40 1.21 1.14 1.10 0.93 0.87 0.86 0.79 0.70 0.72 0.71 0.71 0.69 0.70 0.67 0.68
1.11 1.10 1.08 1.11 1.13 1.14 1.17 1.21 1.23 1.24 1.34 1.46 1.48 1.49 1.45 1.57 1.55 1.60 1.61 1.64 1.57 1.57 1.71 1.71 1.66 1.61 1.54 1.37 1.17 1.07 1.05 0.90 0.86 0.85 0.77 0.73 0.71 0.73 0.69 0.70 0.67 0.68 0.66
1.11 1.11 1.08 1.09 1.13 1.16 1.17 1.20 1.22 1.27 1.32 1.46 1.45 1.47 1.52 1.51 1.47 1.54 1.58 1.57 1.60 1.63 1.67 1.63 1.64 1.54 1.46 1.33 1.09 1.06 0.99 0.87 0.84 0.81 0.78 0.72 0.71 0.71 0.69 0.69 0.67 0.66 0.64
1.14 1.13 1.08 1.07 1.15 1.16 1.15 1.15 1.16 1.18 1.27 1.37 1.41 1.42 1.47 1.50 1.46 1.51 1.53 1.58 1.65 1.64 1.60 1.59 1.46 1.41 1.41 1.31 1.05 1.05 0.92 0.87 0.83 0.79 0.79 0.77 0.73 0.69 0.66 0.65 0.67 0.67 0.70
1.15 1.14 1.09 1.09 1.15 1.15 1.10 1.10 1.10 1.15 1.16 1.30 1.32 1.37 1.44 1.50 1.46 1.47 1.47 1.52 1.61 1.61 1.56 1.57 1.44 1.35 1.24 1.13 1.04 1.02 0.94 0.88 0.84 0.83 0.79 0.80 0.73 0.67 0.62 0.65 0.67 0.70 0.74
1.17 1.14 1.13 1.11 1.13 1.12 1.06 1.05 1.04 1.11 1.14 1.21 1.31 1.34 1.44 1.52 1.51 1.47 1.47 1.51 1.53 1.59 1.60 1.50 1.40 1.32 1.13 1.05 0.99 0.97 0.93 0.86 0.81 0.85 0.82 0.78 0.73 0.69 0.66 0.67 0.70 0.74 0.76
1.19 1.18 1.15 1.14 1.13 1.09 1.06 1.03 1.04 1.02 1.09 1.22 1.22 1.25 1.38 1.48 1.49 1.50 1.50 1.49 1.51 1.54 1.60 1.50 1.39 1.25 1.09 0.96 0.92 0.88 0.89 0.82 0.85 0.85 0.83 0.78 0.74 0.72 0.70 0.72 0.75 0.77 0.80
1.22 1.24 1.21 1.17 1.13 1.10 1.08 1.03 1.00 0.95 1.04 1.15 1.06 1.07 1.02 1.20 1.37 1.42 1.42 1.42 1.47 1.52 1.55 1.48 1.37 1.26 1.05 0.89 0.85 0.80 0.87 0.88 0.86 0.86 0.87 0.83 0.79 0.78 0.77 0.77 0.79 0.80 0.82
1.41 1.38 1.30 1.23 1.19 1.13 1.05 1.06 1.00 0.97 0.92 1.03 1.11 0.97 0.86 0.83 1.07 1.28 1.22 1.32 1.42 1.48 1.54 1.46 1.37 1.24 1.04 0.87 0.84 0.82 0.84 0.93 0.92 0.91 0.90 0.87 0.83 0.80 0.78 0.76 0.76 0.77 0.79
1.46 1.48 1.38 1.29 1.22 1.11 1.08 1.08 1.01 0.99 1.02 0.92 1.05 1.10 1.06 1.02 0.88 0.84 1.07 1.21 1.41 1.44 1.49 1.44 1.35 1.25 1.07 0.89 0.86 0.83 0.85 0.88 0.94 0.97 0.90 0.86 0.81 0.78 0.79 0.79 0.77 0.80 0.85
1.42 1.44 1.42 1.32 1.19 1.08 1.12 1.13 1.00 0.97 1.06 1.02 1.00 1.03 1.08 1.07 1.06 0.88 0.78 0.97 1.29 1.39 1.47 1.41 1.37 1.27 1.02 0.90 0.86 0.88 0.89 0.89 0.86 0.87 0.88 0.86 0.84 0.84 0.85 0.85 0.88 0.90 0.94
1.33 1.37 1.34 1.28 1.17 1.09 1.11 1.16 1.04 1.00 1.02 1.10 1.12 1.12 1.10 1.05 1.03 0.98 0.85 0.96 1.07 1.24 1.40 1.40 1.35 1.27 1.03 0.91 0.89 0.90 0.94 0.94 0.90 0.85 0.83 0.85 0.89 0.90 0.90 0.92 0.92 0.95 1.00
1.21 1.23 1.22 1.21 1.13 1.12 1.15 1.12 1.01 1.02 1.04 1.05 1.10 1.13 1.18 1.15 1.14 1.11 1.04 0.98 1.03 1.23 1.27 1.35 1.37 1.28 1.12 1.00 0.91 0.96 0.97 0.94 0.92 0.86 0.82 0.83 0.88 0.93 0.95 0.97 1.00 1.03 1.08
1.19 1.22 1.20 1.23 1.15 1.18 1.17 1.14 0.98 1.06 1.07 1.06 1.09 1.13 1.14 1.17 1.21 1.18 1.12 1.02 0.95 1.12 1.19 1.20 1.33 1.29 1.17 1.05 0.95 1.00 1.00 0.99 1.02 0.99 0.97 0.96 0.95 0.99 1.01 1.04 1.08 1.09 1.10
1.30 1.23 1.22 1.17 1.17 1.14 1.15 1.00 1.05 1.05 1.06 1.08 1.10 1.13 1.15 1.20 1.21 1.25 1.20 1.14 1.02 0.98 1.03 1.18 1.17 1.29 1.20 1.10 1.08 1.07 1.08 1.06 1.09 1.07 1.04 1.02 1.03 1.04 1.07 1.06 1.07 1.08 1.10
1.30 1.21 1.22 1.15 1.12 1.12 1.07 1.04 1.04 1.07 1.05 1.07 1.09 1.07 1.10 1.19 1.25 1.26 1.28 1.14 1.14 1.13 1.02 1.17 1.19 1.16 1.05 1.10 1.12 1.13 1.14 1.13 1.13 1.12 1.10 1.09 1.09 1.12 1.13 1.12 1.12 1.11 1.14
1.30 1.26 1.21 1.12 1.10 1.07 1.05 1.01 1.01 1.01 1.00 1.02 1.05 1.05 1.11 1.15 1.18 1.23 1.26 1.18 1.16 1.19 1.06 1.13 1.16 1.19 1.13 1.11 1.15 1.18 1.18 1.18 1.16 1.19 1.17 1.16 1.15 1.15 1.15 1.18 1.17 1.16 1.17
1.31 1.26 1.21 1.14 1.10 1.09 1.02 0.98 0.96 0.98 0.95 0.96 1.00 1.09 1.18 1.26 1.27 1.25 1.25 1.18 1.21 1.27 1.16 1.05 1.13 1.16 1.17 1.17 1.18 1.18 1.21 1.17 1.14 1.19 1.18 1.16 1.14 1.15 1.17 1.17 1.20 1.18 1.17
1.31 1.30 1.24 1.15 1.10 1.06 0.98 0.96 0.96 0.95 0.98 1.02 1.05 1.13 1.23 1.29 1.23 1.23 1.25 1.20 1.24 1.24 1.24 1.14 1.09 1.19 1.17 1.17 1.14 1.19 1.20 1.18 1.18 1.17 1.17 1.15 1.15 1.15 1.14 1.13 1.15 1.14 1.14
1.31 1.26 1.19 1.14 1.12 1.05 0.97 0.94 0.93 0.94 0.99 1.01 1.03 1.11 1.22 1.27 1.24 1.27 1.25 1.24 1.24 1.24 1.23 1.17 1.13 1.13 1.13 1.19 1.18 1.05 1.02 1.08 1.06 1.09 1.09 1.11 1.12 1.12 1.11 1.10 1.10 1.09 1.07
1.26 1.21 1.15 1.10 1.07 0.98 0.92 0.93 0.94 0.94 0.97 0.95 0.98 1.00 1.11 1.24 1.30 1.32 1.29 1.27 1.25 1.22 1.20 1.16 1.12 1.12 1.10 1.12 1.08 1.12 1.06 1.06 1.05 1.07 1.06 1.06 1.06 1.05 1.04 1.05 1.04 1.03 0.98
1.16 1.14 1.09 1.05 0.99 0.95 0.94 0.94 0.94 0.92 0.90 0.87 0.89 0.93 1.03 1.11 1.19 1.23 1.25 1.25 1.27 1.21 1.16 1.14 1.10 1.06 1.07 1.09 1.11 1.08 1.03 0.98 0.92 1.04 1.00 0.96 0.99 0.96 0.98 0.98 0.96 0.91 0.88
1.08 1.04 1.02 0.99 0.98 0.97 0.93 0.93 0.94 0.92 0.89 0.90 0.85 0.88 0.95 0.99 1.10 1.15 1.18 1.19 1.19 1.19 1.20 1.19 1.08 1.07 1.07 1.10 1.10 1.05 1.03 1.00 0.94 0.96 0.96 0.88 0.92 0.88 0.88 0.87 0.82 0.82 0.83
0.98 1.00 0.97 0.96 0.97 0.96 0.96 0.94 0.93 0.90 0.89 0.87 0.90 0.88 0.92 0.90 0.96 1.03 1.09 1.08 1.09 1.10 1.11 1.11 1.10 1.07 1.08 1.08 1.08 1.06 1.01 0.96 0.93 0.92 0.92 0.78 0.82 0.76 0.78 0.80 0.82 0.84 0.82
0.92 0.91 0.92 0.92 0.93 0.93 0.94 0.97 0.97 0.88 0.85 0.85 0.85 0.87 0.91 0.89 0.92 0.94 0.96 0.97 0.98 0.98 1.01 1.04 1.03 1.04 1.04 1.03 1.03 1.00 0.92 0.89 0.81 0.78 0.79 0.74 0.72 0.73 0.75 0.76 0.78 0.78 0.75
0.83 0.85 0.85 0.87 0.90 0.90 0.92 0.92 0.94 0.93 0.83 0.82 0.85 0.84 0.86 0.87 0.89 0.90 0.90 0.88 0.86 0.82 0.87 0.91 0.91 0.93 0.92 0.92 0.92 0.91 0.87 0.77 0.74 0.71 0.77 0.73 0.73 0.72 0.67 0.69 0.66 0.61 0.55

GFSMA_prec_pwat_105.txt.gz
Precipitable_Water
1.08 1.11 1.10 1.17 1.19 1.22 1.21 1.22 1.29 1.31 1.32 1.39 1.44 1.44 1.49 1.55 1.56 1.49 1.54 1.61 1.68 1.70 1.69 1.80 1.61 1.61 1.60 1.49 1.42 1.30 1.16 1.09 0.93 0.83 0.80 0.78 0.76 0.73 0.71 0.72 0.72 0.70 0.69
1.10 1.07 1.08 1.10 1.17 1.19 1.22 1.21 1.22 1.27 1.30 1.37 1.37 1.44 1.51 1.55 1.53 1.51 1.52 1.55 1.57 1.76 1.71 1.82 1.74 1.67 1.63 1.55 1.46 1.33 1.16 1.07 0.95 0.84 0.80 0.78 0.77 0.73 0.70 0.70 0.68 0.66 0.69
1.09 1.12 1.10 1.06 1.12 1.19 1.22 1.22 1.19 1.25 1.26 1.29 1.31 1.42 1.51 1.53 1.50 1.48 1.49 1.50 1.52 1.59 1.73 1.86 1.78 1.71 1.67 1.61 1.46 1.27 1.07 1.02 0.92 0.84 0.79 0.74 0.76 0.72 0.68 0.70 0.66 0.66 0.66
1.14 1.13 1.12 1.09 1.10 1.16 1.20 1.17 1.10 1.12 1.17 1.23 1.26 1.35 1.49 1.51 1.50 1.53 1.51 1.53 1.57 1.60 1.62 1.72 1.71 1.66 1.67 1.58 1.45 1.27 1.02 1.00 0.86 0.82 0.76 0.76 0.75 0.74 0.69 0.67 0.64 0.64 0.63
1.19 1.14 1.15 1.12 1.13 1.09 1.13 1.14 1.05 1.08 1.08 1.13 1.19 1.32 1.45 1.45 1.48 1.52 1.48 1.48 1.57 1.55 1.60 1.79 1.56 1.61 1.55 1.47 1.45 1.30 1.06 0.96 0.85 0.83 0.79 0.75 0.76 0.75 0.69 0.65 0.66 0.62 0.65
1.26 1.20 1.18 1.14 1.14 1.08 1.09 1.12 1.03 1.04 1.07 1.12 1.13 1.19 1.34 1.44 1.46 1.47 1.47 1.45 1.48 1.53 1.61 1.69 1.64 1.59 1.46 1.40 1.34 1.24 1.04 0.96 0.89 0.85 0.80 0.81 0.79 0.74 0.68 0.67 0.67 0.68 0.73
1.35 1.22 1.17 1.15 1.13 1.06 1.07 1.09 1.07 0.96 0.97 1.13 1.10 1.13 1.21 1.36 1.42 1.48 1.48 1.46 1.48 1.51 1.51 1.57 1.65 1.59 1.47 1.38 1.22 1.11 1.05 0.99 0.89 0.87 0.82 0.82 0.79 0.75 0.72 0.71 0.71 0.72 0.76
1.35 1.33 1.17 1.12 1.12 1.09 1.11 1.09 1.06 0.97 0.93 1.08 0.96 1.00 0.88 1.05 1.27 1.40 1.46 1.45 1.46 1.49 1.49 1.53 1.61 1.57 1.46 1.35 1.18 1.02 0.95 0.95 0.91 0.87 0.87 0.82 0.80 0.75 0.73 0.71 0.74 0.76 0.78
1.23 1.41 1.30 1.15 1.14 1.18 1.13 1.11 1.07 1.06 0.84 1.00 1.09 0.93 0.80 0.79 0.93 1.22 1.30 1.40 1.41 1.37 1.41 1.49 1.54 1.57 1.46 1.34 1.18 0.94 0.88 0.86 0.88 0.91 0.92 0.87 0.80 0.78 0.76 0.76 0.76 0.79 0.80
1.19 1.30 1.39 1.28 1.20 1.25 1.20 1.16 1.12 1.09 1.03 0.87 1.02 1.06 1.03 0.97 0.81 0.80 1.11 1.17 1.33 1.24 1.29 1.42 1.50 1.53 1.45 1.35 1.18 0.91 0.82 0.80 0.88 0.91 0.90 0.88 0.86 0.81 0.78 0.78 0.78 0.79 0.81
1.13 1.27 1.37 1.44 1.39 1.32 1.27 1.23 1.13 1.09 1.11 0.97 0.97 1.00 0.96 0.98 1.00 0.89 0.81 0.95 1.08 1.15 1.23 1.41 1.48 1.52 1.46 1.36 1.21 0.97 0.83 0.80 0.87 0.96 0.93 0.91 0.91 0.88 0.82 0.78 0.76 0.78 0.84
1.07 1.21 1.34 1.33 1.48 1.39 1.36 1.24 1.15 1.11 1.12 1.03 1.02 1.02 0.98 0.95 0.94 0.95 0.95 1.00 0.96 1.00 1.15 1.38 1.49 1.50 1.45 1.38 1.23 0.99 0.89 0.84 0.85 0.90 0.97 0.96 0.94 0.90 0.86 0.82 0.81 0.83 0.89
0.94 1.10 1.28 1.24 1.29 1.35 1.39 1.26 1.12 1.10 1.14 1.02 0.99 1.04 1.10 1.13 1.19 1.12 1.06 1.01 0.99 1.03 1.07 1.27 1.43 1.48 1.43 1.38 1.24 0.99 0.93 0.90 0.91 0.92 0.88 0.93 0.95 0.92 0.91 0.88 0.90 0.93 0.95
0.89 1.06 1.25 1.28 1.32 1.35 1.35 1.25 1.13 1.09 1.16 1.01 1.00 1.06 1.07 1.11 1.20 1.17 1.11 1.04 0.97 1.01 1.05 1.06 1.34 1.41 1.41 1.36 1.23 1.04 0.98 0.99 0.92 0.93 0.91 0.85 0.89 0.92 0.91 0.90 0.94 0.97 1.00
1.04 1.10 1.27 1.29 1.37 1.33 1.29 1.23 1.11 1.09 1.10 0.96 1.05 1.06 1.05 1.09 1.16 1.18 1.17 1.14 1.06 0.89 0.94 1.05 1.15 1.38 1.38 1.40 1.31 1.14 1.03 1.03 0.96 0.94 0.96 0.91 0.92 0.97 0.96 0.94 0.95 0.98 1.03
1.12 1.15 1.25 1.32 1.34 1.30 1.27 1.19 1.13 1.12 1.07 0.99 1.09 1.05 1.07 1.09 1.10 1.13 1.17 1.18 1.17 1.06 0.93 1.08 1.14 1.33 1.37 1.38 1.33 1.20 1.09 1.08 1.08 1.07 1.05 1.03 1.02 1.02 1.04 1.01 1.00 1.01 1.04
1.12 1.16 1.26 1.32 1.29 1.25 1.25 1.16 1.11 1.05 1.02 1.02 1.05 1.05 1.04 1.08 1.05 1.10 1.13 1.14 1.16 1.21 1.04 1.06 1.21 1.30 1.32 1.32 1.30 1.25 1.24 1.18 1.14 1.14 1.11 1.11 1.07 1.05 1.07 1.06 1.06 1.11 1.16
1.18 1.20 1.26 1.29 1.24 1.26 1.23 1.14 1.06 1.04 0.95 0.94 0.99 1.00 0.99 1.04 1.06 1.12 1.19 1.15 1.15 1.19 1.15 1.02 1.15 1.24 1.24 1.26 1.21 1.19 1.20 1.18 1.16 1.15 1.13 1.15 1.12 1.13 1.13 1.15 1.16 1.15 1.15
1.23 1.24 1.28 1.28 1.23 1.20 1.19 1.13 1.11 1.05 1.00 0.98 0.99 0.96 0.98 1.04 1.05 1.14 1.20 1.21 1.23 1.22 1.21 1.12 1.11 1.21 1.21 1.22 1.20 1.21 1.18 1.17 1.17 1.16 1.16 1.14 1.16 1.17 1.17 1.14 1.11 1.12 1.12
1.24 1.23 1.25 1.26 1.16 1.20 1.19 1.15 1.09 1.00 0.98 0.97 0.95 0.95 0.98 0.98 1.02 1.13 1.19 1.22 1.24 1.18 1.19 1.15 1.13 1.15 1.16 1.20 1.21 1.10 1.09 1.12 1.10 1.14 1.14 1.13 1.12 1.12 1.11 1.09 1.11 1.11 1.10
1.29 1.27 1.26 1.21 1.15 1.23 1.17 1.12 1.07 0.99 0.93 0.92 0.93 0.94 0.94 0.97 1.00 1.14 1.22 1.23 1.24 1.18 1.15 1.12 1.11 1.14 1.12 1.14 1.10 1.11 1.05 1.06 1.06 1.10 1.08 1.06 1.06 1.06 1.05 1.05 1.04 1.03 1.02
1.19 1.25 1.20 1.14 1.13 1.13 1.11 1.07 1.05 0.96 0.94 0.90 0.88 0.88 0.89 0.93 0.98 1.04 1.15 1.25 1.24 1.21 1.15 1.12 1.12 1.10 1.11 1.14 1.14 1.07 1.02 0.96 0.89 1.02 0.99 0.97 1.01 0.96 0.98 0.99 0.99 0.98 0.96
1.13 1.11 1.12 1.11 1.07 1.06 1.04 1.05 1.02 0.96 0.91 0.86 0.86 0.86 0.85 0.89 0.90 0.96 1.05 1.17 1.18 1.19 1.22 1.21 1.14 1.14 1.12 1.15 1.13 1.07 1.04 1.02 0.98 1.00 0.98 0.89 0.94 0.91 0.93 0.94 0.93 0.93 0.92
1.00 1.04 1.03 1.04 1.03 0.99 1.00 0.99 0.97 0.95 0.90 0.85 0.83 0.86 0.85 0.85 0.88 0.88 0.94 1.03 1.05 1.10 1.14 1.14 1.12 1.12 1.16 1.15 1.14 1.11 1.06 1.01 0.98 0.96 0.97 0.82 0.87 0.85 0.87 0.88 0.87 0.86 0.86
0.89 0.95 0.97 0.96 0.95 0.94 0.96 0.96 0.95 0.94 0.91 0.87 0.84 0.81 0.84 0.84 0.87 0.88 0.87 0.89 0.94 0.98 1.05 1.08 1.09 1.09 1.08 1.09 1.09 1.07 0.98 0.94 0.85 0.85 0.89 0.85 0.82 0.80 0.80 0.79 0.80 0.79 0.77
0.84 0.87 0.87 0.91 0.87 0.88 0.90 0.91 0.92 0.89 0.85 0.85 0.85 0.83 0.81 0.83 0.87 0.86 0.85 0.86 0.83 0.87 0.93 0.96 0.97 0.97 0.99 0.99 1.01 0.99 0.96 0.89 0.85 0.79 0.82 0.79 0.77 0.76 0.68 0.71 0.71 0.72 0.72

GFSMA_prec_pwat_108.txt.gz
Precipitable_Water
1.16 1.22 1.22 1.24 1.26 1.31 1.29 1.24 1.24 1.25 1.30 1.37 1.45 1.46 1.47 1.47 1.55 1.55 1.55 1.57 1.50 1.56 1.62 1.78 1.88 1.76 1.67 1.54 1.52 1.44 1.31 1.17 1.09 0.99 0.87 0.83 0.80 0.79 0.76 0.71 0.72 0.72 0.68
1.19 1.14 1.19 1.22 1.20 1.25 1.29 1.27 1.22 1.21 1.23 1.33 1.38 1.41 1.41 1.51 1.48 1.55 1.54 1.50 1.47 1.49 1.57 1.76 1.88 1.78 1.69 1.61 1.59 1.47 1.35 1.17 1.09 0.97 0.82 0.77 0.79 0.77 0.74 0.72 0.72 0.69 0.65
1.22 1.16 1.14 1.16 1.19 1.25 1.26 1.24 1.27 1.25 1.20 1.27 1.26 1.34 1.38 1.46 1.45 1.51 1.51 1.48 1.50 1.49 1.49 1.57 1.77 1.53 1.66 1.63 1.58 1.49 1.39 1.21 1.09 1.00 0.83 0.76 0.77 0.78 0.72 0.71 0.69 0.67 0.66
1.27 1.21 1.13 1.12 1.22 1.26 1.25 1.15 1.18 1.16 1.09 1.11 1.15 1.24 1.29 1.40 1.46 1.51 1.49 1.46 1.53 1.52 1.55 1.52 1.58 1.65 1.68 1.68 1.64 1.55 1.38 1.17 1.01 0.98 0.82 0.75 0.74 0.75 0.73 0.69 0.67 0.67 0.67
1.24 1.22 1.17 1.17 1.20 1.20 1.22 1.15 1.10 1.13 0.99 1.01 1.07 1.17 1.26 1.35 1.42 1.47 1.46 1.47 1.51 1.56 1.61 1.61 1.56 1.66 1.74 1.72 1.67 1.56 1.40 1.19 0.99 0.92 0.79 0.74 0.74 0.74 0.71 0.72 0.70 0.68 0.64
1.19 1.25 1.26 1.21 1.20 1.16 1.17 1.16 1.06 1.13 1.05 0.99 1.04 1.08 1.18 1.27 1.35 1.46 1.43 1.47 1.51 1.52 1.58 1.61 1.58 1.60 1.76 1.69 1.62 1.53 1.44 1.24 1.00 0.89 0.79 0.77 0.73 0.75 0.72 0.72 0.71 0.68 0.66
1.24 1.21 1.34 1.28 1.22 1.16 1.13 1.16 1.09 1.05 1.03 1.06 0.95 0.99 1.09 1.19 1.28 1.39 1.44 1.44 1.46 1.48 1.50 1.55 1.55 1.63 1.58 1.63 1.58 1.50 1.47 1.28 1.04 0.86 0.79 0.81 0.76 0.78 0.72 0.70 0.68 0.67 0.67
1.23 1.23 1.27 1.31 1.26 1.18 1.14 1.15 1.06 1.00 1.04 1.07 0.87 0.85 0.77 0.92 1.12 1.27 1.32 1.42 1.43 1.48 1.49 1.52 1.50 1.55 1.70 1.62 1.56 1.45 1.42 1.24 1.06 0.91 0.84 0.83 0.83 0.76 0.72 0.67 0.69 0.67 0.73
1.15 1.21 1.21 1.30 1.34 1.23 1.10 1.12 1.09 1.03 0.94 1.03 1.04 0.81 0.73 0.68 0.88 1.07 1.17 1.26 1.40 1.41 1.44 1.51 1.46 1.52 1.59 1.65 1.57 1.43 1.30 1.13 1.03 0.94 0.86 0.85 0.83 0.78 0.72 0.70 0.72 0.73 0.77
1.08 1.20 1.21 1.24 1.38 1.32 1.16 1.13 1.15 1.14 1.07 0.91 1.04 1.00 0.95 0.92 0.75 0.74 0.99 1.09 1.26 1.33 1.37 1.47 1.42 1.46 1.53 1.58 1.59 1.46 1.30 1.11 0.97 0.91 0.85 0.87 0.84 0.80 0.76 0.74 0.74 0.79 0.81
1.02 1.13 1.18 1.22 1.29 1.39 1.31 1.19 1.17 1.20 1.16 1.03 0.93 0.97 0.92 0.89 0.92 0.89 0.75 0.87 1.07 1.21 1.27 1.37 1.32 1.32 1.44 1.52 1.54 1.46 1.33 1.11 0.93 0.86 0.92 0.94 0.87 0.81 0.79 0.80 0.80 0.80 0.80
0.98 1.10 1.17 1.20 1.22 1.36 1.39 1.32 1.29 1.28 1.20 1.10 1.05 1.03 0.91 0.79 0.85 0.84 0.85 0.87 0.95 1.08 1.20 1.19 1.21 1.24 1.39 1.52 1.50 1.46 1.33 1.13 0.94 0.87 0.91 0.93 0.91 0.91 0.87 0.84 0.81 0.82 0.81
0.94 1.00 1.11 1.11 1.16 1.28 1.43 1.50 1.45 1.34 1.28 1.16 1.04 1.03 1.05 0.92 0.95 0.95 0.99 0.98 0.94 1.08 1.12 1.21 1.25 1.24 1.36 1.52 1.51 1.46 1.36 1.19 0.93 0.90 0.96 0.95 0.94 0.92 0.92 0.91 0.86 0.86 0.85
0.94 1.01 1.09 1.11 1.10 1.24 1.41 1.43 1.48 1.40 1.35 1.20 1.08 1.08 1.07 0.94 1.04 1.01 0.97 1.01 0.93 1.02 1.07 1.06 1.21 1.24 1.29 1.46 1.50 1.48 1.40 1.24 0.99 0.93 0.95 0.97 0.95 0.95 0.93 0.92 0.94 0.94 0.91
1.05 1.04 1.09 1.14 1.16 1.26 1.31 1.35 1.40 1.36 1.25 1.23 1.12 1.11 1.08 0.98 1.06 1.05 1.05 1.07 0.98 0.88 0.93 1.06 1.08 1.27 1.27 1.32 1.46 1.45 1.36 1.24 1.05 0.97 0.96 0.95 0.91 0.90 0.94 0.97 0.98 0.99 0.98
1.16 1.07 1.07 1.15 1.17 1.26 1.27 1.32 1.40 1.32 1.32 1.22 1.15 1.13 1.04 1.05 1.04 1.07 1.06 1.08 1.07 0.96 0.84 1.03 1.11 1.26 1.27 1.26 1.45 1.40 1.35 1.33 1.16 1.04 1.02 1.00 0.96 0.87 0.83 0.90 0.93 0.95 0.97
1.10 1.11 1.11 1.11 1.17 1.13 1.30 1.36 1.35 1.32 1.29 1.22 1.18 1.11 1.01 1.03 1.02 1.04 1.07 1.07 1.03 1.04 0.92 0.97 1.20 1.25 1.24 1.23 1.29 1.36 1.37 1.32 1.23 1.19 1.11 1.03 1.01 0.99 0.93 0.94 0.99 0.99 0.99
1.12 1.12 1.14 1.17 1.19 1.17 1.26 1.33 1.29 1.31 1.25 1.15 1.07 1.04 1.05 1.01 1.01 1.05 1.04 1.04 1.01 1.07 1.05 0.94 1.08 1.20 1.22 1.25 1.22 1.29 1.34 1.36 1.29 1.23 1.13 1.12 1.09 1.06 1.02 1.04 1.04 1.06 1.03
1.16 1.15 1.15 1.18 1.20 1.16 1.25 1.31 1.32 1.28 1.21 1.13 1.10 1.07 1.02 0.99 0.94 0.97 0.98 0.98 1.08 1.12 1.16 1.09 1.07 1.19 1.22 1.24 1.22 1.28 1.25 1.26 1.24 1.19 1.21 1.18 1.17 1.11 1.08 1.08 1.05 1.06 1.08
1.20 1.17 1.19 1.21 1.22 1.21 1.29 1.31 1.24 1.18 1.17 1.14 1.09 1.02 0.99 0.93 0.88 0.90 0.96 1.00 1.07 1.10 1.16 1.15 1.12 1.13 1.20 1.25 1.20 1.12 1.12 1.17 1.15 1.19 1.18 1.16 1.13 1.12 1.12 1.10 1.11 1.11 1.10
1.26 1.31 1.28 1.28 1.25 1.26 1.26 1.26 1.22 1.15 1.14 1.10 1.02 0.97 0.94 0.91 0.88 0.90 0.92 0.96 1.05 1.07 1.12 1.14 1.12 1.12 1.11 1.15 1.05 1.14 1.09 1.07 1.08 1.12 1.09 1.10 1.11 1.12 1.12 1.11 1.12 1.09 1.09
1.12 1.21 1.17 1.19 1.18 1.16 1.21 1.23 1.21 1.11 1.10 1.05 0.94 0.91 0.90 0.91 0.85 0.88 0.90 0.96 1.03 1.05 1.11 1.15 1.12 1.07 1.10 1.13 1.14 1.10 1.05 0.99 0.93 1.06 1.01 1.00 1.05 1.02 1.05 1.05 1.05 1.04 1.04
1.04 1.07 1.07 1.11 1.12 1.14 1.16 1.16 1.13 1.05 1.06 0.99 0.92 0.88 0.88 0.84 0.84 0.87 0.87 0.89 0.96 1.02 1.14 1.21 1.14 1.12 1.11 1.16 1.14 1.07 1.06 1.05 0.98 1.00 0.99 0.91 0.96 0.94 0.99 0.99 0.99 0.99 0.98
0.94 0.98 0.99 1.03 1.06 1.08 1.11 1.10 1.08 1.05 1.01 0.92 0.88 0.86 0.85 0.83 0.84 0.86 0.86 0.84 0.90 0.95 1.01 1.12 1.13 1.11 1.12 1.17 1.18 1.15 1.10 1.05 1.02 0.99 0.97 0.84 0.91 0.88 0.91 0.92 0.92 0.92 0.91
0.89 0.92 0.93 0.98 0.96 0.98 1.02 1.05 1.05 1.00 0.95 0.89 0.87 0.85 0.84 0.81 0.83 0.84 0.82 0.83 0.82 0.87 0.93 0.98 1.05 1.09 1.10 1.12 1.12 1.12 1.02 0.96 0.87 0.87 0.91 0.88 0.84 0.83 0.83 0.83 0.86 0.86 0.85
0.83 0.85 0.84 0.89 0.89 0.91 0.95 0.96 0.97 0.93 0.88 0.87 0.85 0.86 0.86 0.83 0.83 0.83 0.81 0.81 0.79 0.80 0.82 0.86 0.93 0.99 1.01 1.02 1.05 1.04 1.00 0.93 0.88 0.81 0.86 0.81 0.79 0.79 0.72 0.77 0.78 0.78 0.77

GFSMA_prec_pwat_111.txt.gz
Precipitable_Water
1.24 1.26 1.26 1.29 1.37 1.30 1.30 1.25 1.27 1.27 1.26 1.31 1.32 1.35 1.45 1.49 1.56 1.54 1.58 1.61 1.53 1.54 1.57 1.54 1.66 1.69 1.77 1.74 1.62 1.51 1.47 1.41 1.31 1.17 1.07 0.97 0.87 0.84 0.85 0.86 0.77 0.69 0.69
1.30 1.26 1.25 1.25 1.30 1.34 1.32 1.28 1.23 1.25 1.26 1.31 1.31 1.36 1.40 1.47 1.51 1.53 1.53 1.53 1.52 1.54 1.54 1.56 1.62 1.60 1.82 1.79 1.69 1.52 1.48 1.42 1.30 1.12 1.04 0.91 0.84 0.82 0.83 0.82 0.74 0.71 0.67
1.31 1.25 1.18 1.22 1.25 1.30 1.34 1.33 1.26 1.29 1.26 1.26 1.22 1.27 1.36 1.39 1.40 1.42 1.47 1.53 1.55 1.50 1.54 1.53 1.59 1.55 1.50 1.61 1.70 1.55 1.52 1.47 1.38 1.17 1.08 0.89 0.80 0.77 0.79 0.79 0.74 0.70 0.66
1.32 1.33 1.25 1.15 1.26 1.25 1.30 1.26 1.25 1.19 1.20 1.18 1.15 1.16 1.20 1.27 1.32 1.38 1.46 1.47 1.54 1.51 1.48 1.54 1.51 1.49 1.52 1.73 1.69 1.64 1.58 1.53 1.43 1.24 1.09 0.91 0.77 0.75 0.75 0.76 0.75 0.71 0.67
1.39 1.34 1.33 1.26 1.24 1.17 1.21 1.25 1.23 1.23 1.16 1.12 1.15 1.11 1.13 1.15 1.23 1.30 1.44 1.47 1.50 1.49 1.47 1.54 1.55 1.53 1.56 1.56 1.59 1.63 1.64 1.56 1.44 1.20 1.06 0.94 0.76 0.73 0.73 0.73 0.74 0.72 0.72
1.38 1.37 1.34 1.34 1.34 1.20 1.14 1.21 1.19 1.24 1.19 1.11 1.10 1.07 1.05 1.12 1.15 1.25 1.35 1.42 1.50 1.47 1.51 1.55 1.54 1.60 1.55 1.56 1.66 1.63 1.66 1.59 1.42 1.17 1.00 0.86 0.75 0.74 0.73 0.71 0.71 0.71 0.71
1.39 1.31 1.26 1.22 1.25 1.24 1.15 1.15 1.19 1.14 1.15 1.19 1.08 1.03 1.02 1.03 1.05 1.15 1.29 1.39 1.45 1.45 1.50 1.51 1.48 1.56 1.61 1.59 1.55 1.69 1.68 1.61 1.44 1.24 0.99 0.81 0.74 0.76 0.74 0.71 0.72 0.71 0.70
1.35 1.32 1.23 1.15 1.21 1.19 1.25 1.15 1.14 1.10 1.15 1.21 0.95 0.93 0.77 0.84 0.87 1.03 1.11 1.24 1.33 1.41 1.49 1.50 1.47 1.48 1.56 1.54 1.51 1.71 1.65 1.61 1.50 1.29 1.04 0.85 0.74 0.77 0.75 0.73 0.72 0.70 0.67
1.20 1.17 1.25 1.24 1.24 1.21 1.21 1.21 1.17 1.11 1.04 1.17 1.10 0.91 0.75 0.65 0.71 0.83 0.96 1.11 1.22 1.28 1.44 1.50 1.46 1.48 1.50 1.53 1.58 1.57 1.62 1.60 1.53 1.35 1.08 0.88 0.77 0.77 0.77 0.73 0.69 0.68 0.68
1.12 1.13 1.11 1.14 1.27 1.22 1.19 1.25 1.29 1.20 1.15 1.00 1.12 1.08 1.01 0.94 0.72 0.61 0.81 0.96 1.13 1.16 1.26 1.43 1.39 1.49 1.50 1.51 1.53 1.58 1.61 1.55 1.48 1.34 1.12 0.91 0.80 0.82 0.82 0.77 0.68 0.70 0.70
1.06 1.03 1.10 1.10 1.14 1.23 1.22 1.19 1.32 1.23 1.17 1.11 1.07 1.03 1.01 0.97 0.93 0.77 0.61 0.80 1.01 1.10 1.16 1.35 1.41 1.38 1.51 1.47 1.48 1.53 1.63 1.55 1.45 1.33 1.12 0.93 0.85 0.83 0.85 0.79 0.74 0.72 0.73
1.04 1.01 1.06 1.10 1.11 1.18 1.18 1.20 1.25 1.31 1.16 1.15 1.17 1.11 1.01 0.88 0.84 0.85 0.69 0.72 0.79 0.96 1.09 1.20 1.29 1.31 1.38 1.33 1.37 1.40 1.48 1.54 1.48 1.37 1.14 0.98 0.88 0.86 0.87 0.84 0.78 0.75 0.79
1.04 0.95 1.01 1.10 1.12 1.16 1.19 1.22 1.20 1.33 1.37 1.27 1.20 1.16 1.14 1.03 0.99 0.96 0.87 0.77 0.78 1.00 1.12 1.22 1.26 1.30 1.27 1.33 1.35 1.37 1.48 1.50 1.49 1.41 1.19 1.03 0.95 0.94 0.90 0.88 0.83 0.81 0.81
1.01 1.08 1.01 1.12 1.19 1.18 1.22 1.25 1.20 1.30 1.36 1.41 1.24 1.30 1.22 1.13 1.09 1.06 0.98 0.81 0.74 0.89 1.02 1.05 1.23 1.26 1.26 1.27 1.29 1.33 1.48 1.49 1.46 1.40 1.26 1.04 1.04 0.98 0.93 0.91 0.88 0.83 0.80
1.01 1.15 1.09 1.15 1.18 1.21 1.23 1.26 1.21 1.21 1.36 1.56 1.42 1.38 1.30 1.21 1.13 1.09 1.05 0.91 0.86 0.69 0.78 0.95 1.03 1.29 1.26 1.26 1.29 1.32 1.32 1.44 1.44 1.37 1.26 1.07 1.05 1.04 1.02 1.00 0.94 0.91 0.88
1.01 1.13 1.12 1.12 1.11 1.17 1.24 1.27 1.25 1.28 1.33 1.38 1.41 1.42 1.28 1.21 1.15 1.12 1.05 0.98 0.98 0.88 0.73 0.93 0.99 1.09 1.20 1.26 1.33 1.34 1.32 1.35 1.42 1.38 1.29 1.15 1.06 1.06 1.04 1.02 0.98 0.92 0.98
1.09 1.10 1.09 1.12 1.08 1.15 1.17 1.25 1.25 1.32 1.27 1.27 1.28 1.30 1.26 1.21 1.15 1.11 1.04 0.99 0.98 1.01 0.88 0.94 1.04 1.10 1.19 1.19 1.26 1.32 1.33 1.29 1.32 1.35 1.28 1.17 1.06 1.04 0.99 0.96 0.96 0.96 1.00
1.22 1.16 1.17 1.17 1.11 1.11 1.12 1.18 1.20 1.22 1.18 1.22 1.22 1.28 1.25 1.24 1.16 1.13 1.05 0.99 0.98 1.03 0.99 0.88 0.98 1.02 1.11 1.15 1.22 1.25 1.29 1.31 1.26 1.28 1.28 1.30 1.27 1.16 1.08 1.02 0.94 0.95 0.96
1.27 1.17 1.24 1.18 1.14 1.15 1.11 1.18 1.21 1.14 1.11 1.17 1.18 1.28 1.28 1.23 1.12 1.07 1.09 0.99 1.01 1.02 0.98 0.93 0.93 1.07 1.16 1.23 1.16 1.22 1.23 1.25 1.21 1.21 1.23 1.25 1.24 1.22 1.16 1.09 0.99 0.97 0.97
1.32 1.22 1.20 1.22 1.19 1.21 1.22 1.28 1.22 1.17 1.10 1.16 1.22 1.35 1.31 1.19 1.14 1.09 1.04 1.00 0.99 0.94 0.95 0.95 0.97 1.04 1.11 1.19 1.19 1.11 1.08 1.13 1.10 1.12 1.19 1.22 1.23 1.24 1.18 1.13 1.08 1.09 1.10
1.12 1.12 1.15 1.17 1.19 1.20 1.24 1.30 1.26 1.24 1.17 1.17 1.25 1.28 1.21 1.16 1.07 0.98 0.94 0.92 0.91 0.89 0.90 0.91 0.92 0.99 1.02 1.08 1.07 1.12 1.06 1.10 1.08 1.09 1.10 1.09 1.15 1.16 1.14 1.15 1.14 1.13 1.10
1.06 1.08 1.06 1.06 1.09 1.16 1.24 1.33 1.29 1.26 1.25 1.21 1.15 1.13 1.14 1.12 1.03 0.95 0.91 0.89 0.86 0.82 0.86 0.90 0.92 0.94 1.04 1.14 1.16 1.12 1.06 1.02 0.96 1.08 1.06 1.02 1.07 1.05 1.08 1.08 1.09 1.09 1.08
0.99 0.98 1.00 1.01 1.03 1.09 1.17 1.27 1.25 1.19 1.13 1.08 1.12 1.10 1.03 1.06 0.97 0.90 0.89 0.86 0.82 0.83 0.85 0.90 0.89 0.97 1.07 1.18 1.18 1.10 1.09 1.07 1.01 1.03 1.05 0.96 0.99 0.97 0.99 1.01 1.02 1.02 1.02
0.90 0.89 0.91 0.92 1.00 0.98 1.12 1.15 1.18 1.14 1.10 1.09 1.07 1.06 1.00 1.00 0.93 0.88 0.85 0.83 0.82 0.82 0.84 0.87 0.87 0.92 1.02 1.15 1.20 1.16 1.11 1.05 1.05 1.03 1.04 0.88 0.92 0.89 0.94 0.92 0.96 0.95 0.93
0.83 0.84 0.85 0.88 0.92 0.95 0.99 1.04 1.03 1.02 1.00 0.99 1.01 1.00 0.99 0.97 0.88 0.87 0.84 0.82 0.79 0.78 0.83 0.85 0.86 0.89 0.97 1.08 1.15 1.13 1.00 0.96 0.89 0.91 0.97 0.90 0.86 0.86 0.85 0.85 0.88 0.89 0.88
0.76 0.77 0.78 0.81 0.86 0.86 0.91 0.95 0.95 0.92 0.91 0.92 0.93 0.93 0.94 0.90 0.85 0.85 0.83 0.81 0.76 0.76 0.79 0.81 0.84 0.84 0.86 0.94 1.04 1.04 1.02 0.93 0.92 0.86 0.90 0.84 0.83 0.84 0.74 0.79 0.81 0.83 0.83

GFSMA_prec_pwat_114.txt.gz
Precipitable_Water
1.20 1.20 1.23 1.31 1.30 1.28 1.19 1.15 1.22 1.22 1.21 1.20 1.28 1.32 1.29 1.33 1.42 1.52 1.61 1.56 1.51 1.51 1.56 1.56 1.52 1.55 1.63 1.67 1.70 1.77 1.67 1.51 1.45 1.37 1.33 1.22 1.06 0.95 0.87 0.82 0.83 0.78 0.73
1.20 1.26 1.23 1.28 1.34 1.38 1.32 1.19 1.12 1.13 1.21 1.24 1.20 1.30 1.31 1.40 1.43 1.48 1.48 1.51 1.49 1.43 1.45 1.50 1.52 1.50 1.57 1.64 1.58 1.71 1.68 1.56 1.45 1.39 1.28 1.17 1.04 0.95 0.87 0.83 0.83 0.77 0.71
1.26 1.29 1.26 1.22 1.25 1.43 1.38 1.26 1.19 1.26 1.16 1.23 1.22 1.22 1.25 1.33 1.35 1.40 1.45 1.43 1.42 1.44 1.41 1.47 1.39 1.44 1.48 1.52 1.47 1.52 1.66 1.58 1.48 1.40 1.28 1.15 1.02 0.94 0.86 0.84 0.82 0.77 0.72
1.29 1.33 1.26 1.26 1.30 1.32 1.40 1.29 1.20 1.13 1.16 1.21 1.17 1.21 1.18 1.23 1.26 1.28 1.32 1.35 1.33 1.38 1.37 1.41 1.41 1.38 1.47 1.49 1.49 1.49 1.61 1.65 1.49 1.41 1.33 1.17 1.03 0.91 0.83 0.82 0.79 0.74 0.72
1.43 1.41 1.33 1.25 1.27 1.31 1.33 1.26 1.22 1.12 1.13 1.16 1.17 1.19 1.18 1.16 1.15 1.17 1.21 1.27 1.29 1.37 1.40 1.39 1.35 1.40 1.47 1.53 1.49 1.53 1.59 1.67 1.54 1.47 1.42 1.27 1.06 0.93 0.80 0.78 0.75 0.73 0.71
1.48 1.53 1.45 1.38 1.31 1.27 1.23 1.28 1.22 1.21 1.16 1.13 1.17 1.18 1.16 1.16 1.14 1.10 1.16 1.22 1.26 1.36 1.41 1.40 1.39 1.42 1.44 1.51 1.56 1.56 1.66 1.68 1.58 1.52 1.46 1.27 1.05 0.97 0.79 0.75 0.72 0.72 0.72
1.54 1.49 1.51 1.47 1.33 1.24 1.16 1.25 1.25 1.19 1.16 1.19 1.11 1.13 1.16 1.18 1.14 1.13 1.10 1.13 1.14 1.19 1.37 1.36 1.41 1.44 1.43 1.54 1.57 1.60 1.60 1.67 1.65 1.59 1.49 1.22 0.99 0.95 0.81 0.73 0.72 0.71 0.71
1.62 1.55 1.47 1.45 1.45 1.26 1.16 1.18 1.26 1.15 1.14 1.22 1.05 1.02 0.88 0.98 1.06 1.05 1.07 1.03 1.06 1.11 1.15 1.33 1.34 1.44 1.44 1.46 1.57 1.59 1.57 1.65 1.71 1.64 1.51 1.28 0.99 0.85 0.78 0.76 0.74 0.72 0.72
1.49 1.48 1.54 1.45 1.49 1.40 1.25 1.14 1.18 1.16 1.03 1.13 1.20 1.00 0.82 0.70 0.84 1.00 1.04 1.02 1.01 1.02 1.11 1.21 1.32 1.43 1.40 1.44 1.51 1.54 1.55 1.60 1.68 1.64 1.50 1.34 1.05 0.87 0.76 0.76 0.76 0.77 0.75
1.13 1.27 1.41 1.38 1.35 1.29 1.31 1.26 1.22 1.15 1.14 1.06 1.18 1.16 1.05 0.95 0.75 0.75 1.01 1.05 1.04 1.00 1.05 1.13 1.22 1.37 1.39 1.41 1.46 1.51 1.50 1.60 1.65 1.64 1.54 1.40 1.11 0.90 0.80 0.78 0.78 0.77 0.75
1.09 1.20 1.20 1.25 1.33 1.27 1.21 1.18 1.24 1.22 1.15 1.10 1.10 1.06 1.07 1.05 1.02 0.87 0.79 0.89 1.07 1.01 1.02 1.12 1.14 1.25 1.39 1.36 1.43 1.43 1.43 1.49 1.53 1.62 1.57 1.46 1.20 0.96 0.82 0.77 0.78 0.79 0.77
0.89 1.09 1.25 1.21 1.18 1.18 1.24 1.24 1.17 1.22 1.19 1.15 1.15 1.18 1.04 0.97 0.94 0.93 0.84 0.87 0.89 0.95 0.98 1.07 1.13 1.22 1.31 1.35 1.34 1.37 1.36 1.46 1.48 1.56 1.57 1.48 1.32 1.05 0.89 0.81 0.78 0.78 0.77
0.69 0.91 1.12 1.26 1.12 1.09 1.10 1.24 1.16 1.16 1.21 1.18 1.12 1.14 1.21 1.11 1.12 1.06 0.96 0.85 0.84 0.96 0.92 1.05 1.14 1.24 1.33 1.37 1.35 1.30 1.32 1.33 1.41 1.46 1.55 1.51 1.40 1.16 0.94 0.87 0.82 0.82 0.80
0.65 0.79 1.07 1.06 1.59 1.13 1.09 1.16 1.26 1.21 1.18 1.23 1.20 1.17 1.21 1.22 1.22 1.16 1.01 0.90 0.83 0.90 0.91 0.81 1.10 1.19 1.28 1.33 1.35 1.33 1.32 1.33 1.35 1.42 1.46 1.53 1.46 1.26 1.05 0.92 0.89 0.86 0.84
0.64 0.73 0.92 1.07 1.08 1.21 1.11 1.08 1.09 1.20 1.25 1.22 1.30 1.25 1.20 1.16 1.33 1.34 1.22 1.11 0.97 0.74 0.74 0.83 0.89 1.09 1.19 1.25 1.32 1.33 1.30 1.28 1.31 1.38 1.48 1.50 1.46 1.35 1.15 1.03 0.96 0.89 0.84
0.75 0.73 0.79 1.05 1.10 1.10 1.15 1.07 1.07 1.21 1.26 1.28 1.29 1.22 1.21 1.24 1.35 1.39 1.33 1.19 1.09 0.92 0.74 0.83 0.91 1.02 1.13 1.17 1.23 1.24 1.25 1.29 1.32 1.35 1.37 1.47 1.46 1.38 1.30 1.15 1.06 0.97 0.92
0.86 0.76 0.79 0.96 1.07 1.14 1.18 1.14 1.11 1.19 1.23 1.25 1.30 1.26 1.18 1.10 1.20 1.40 1.31 1.22 1.13 1.04 0.85 0.85 0.97 1.08 1.11 1.13 1.17 1.22 1.25 1.25 1.29 1.33 1.32 1.32 1.39 1.36 1.32 1.21 1.11 1.05 1.03
1.04 0.90 0.87 0.98 1.07 1.15 1.19 1.14 1.10 1.20 1.18 1.22 1.28 1.28 1.24 1.36 1.34 1.32 1.29 1.24 1.15 1.12 0.99 0.80 0.95 1.03 1.08 1.13 1.16 1.16 1.18 1.25 1.25 1.29 1.29 1.29 1.28 1.28 1.31 1.30 1.18 1.19 1.13
1.03 1.10 1.14 1.16 1.13 1.12 1.24 1.15 1.08 1.17 1.15 1.19 1.22 1.23 1.22 1.21 1.18 1.25 1.29 1.25 1.19 1.13 1.07 0.92 0.91 1.04 1.05 1.11 1.11 1.17 1.19 1.22 1.21 1.22 1.31 1.31 1.24 1.20 1.24 1.26 1.22 1.15 1.07
1.01 1.04 1.08 1.21 1.27 1.24 1.24 1.16 1.13 1.16 1.16 1.20 1.28 1.27 1.22 1.17 1.20 1.23 1.27 1.24 1.16 1.09 1.03 0.96 0.92 0.94 0.95 1.04 1.10 1.03 1.06 1.14 1.13 1.21 1.23 1.27 1.27 1.23 1.20 1.20 1.26 1.24 1.17
1.00 1.03 1.06 1.22 1.20 1.24 1.24 1.13 1.14 1.14 1.13 1.19 1.23 1.18 1.12 1.13 1.21 1.25 1.23 1.12 1.06 1.00 0.93 0.91 0.87 0.87 0.89 0.94 0.94 1.03 1.02 1.06 1.09 1.14 1.16 1.14 1.19 1.16 1.17 1.18 1.18 1.22 1.21
1.00 1.02 1.02 1.09 1.10 1.06 1.11 1.14 1.19 1.20 1.17 1.17 1.12 1.07 1.07 1.08 1.09 1.11 1.13 1.13 1.07 0.90 0.86 0.84 0.86 0.82 0.87 0.93 1.01 1.01 0.97 1.01 0.94 1.13 1.10 1.03 1.11 1.08 1.07 1.08 1.14 1.15 1.13
0.93 0.93 0.99 1.02 1.02 1.03 1.06 1.10 1.14 1.14 1.13 1.14 1.13 1.11 1.09 1.06 1.10 1.11 1.08 1.03 0.99 0.90 0.87 0.86 0.81 0.82 0.84 0.95 0.96 0.97 1.01 1.09 1.04 1.08 1.08 0.97 1.03 1.00 1.05 1.07 1.07 1.09 1.05
0.84 0.85 0.89 0.94 0.96 0.98 1.02 1.08 1.04 1.08 1.07 1.08 1.07 1.12 1.11 1.08 1.09 1.08 1.05 0.99 0.96 0.88 0.86 0.84 0.83 0.83 0.87 0.93 0.96 0.99 1.01 1.05 1.06 1.04 1.04 0.88 0.95 0.91 0.98 1.01 1.00 0.98 0.99
0.78 0.80 0.83 0.86 0.87 0.89 0.96 0.97 1.01 0.96 1.03 1.00 1.03 1.01 1.04 1.03 1.04 1.07 1.01 0.94 0.91 0.84 0.85 0.85 0.85 0.86 0.87 0.91 0.95 0.93 0.90 0.93 0.90 0.93 0.97 0.91 0.89 0.89 0.90 0.90 0.93 0.93 0.92
0.72 0.74 0.75 0.77 0.79 0.80 0.85 0.88 0.90 0.84 0.91 0.89 0.94 0.92 0.95 0.95 0.96 0.97 0.94 0.93 0.86 0.80 0.79 0.81 0.83 0.83 0.85 0.87 0.89 0.90 0.90 0.88 0.88 0.84 0.92 0.87 0.84 0.85 0.78 0.84 0.86 0.86 0.86

GFSMA_prec_pwat_117.txt.gz
Precipitable_Water
1.10 1.15 1.16 1.18 1.16 1.20 1.21 1.18 1.15 1.14 1.13 1.11 1.11 1.15 1.16 1.27 1.35 1.37 1.42 1.50 1.55 1.46 1.46 1.48 1.45 1.50 1.47 1.53 1.59 1.55 1.52 1.70 1.65 1.53 1.38 1.34 1.30 1.13 0.96 0.87 0.83 0.81 0.78
1.20 1.16 1.17 1.17 1.19 1.20 1.25 1.27 1.19 1.15 1.13 1.09 1.10 1.12 1.17 1.24 1.33 1.38 1.40 1.47 1.42 1.40 1.39 1.39 1.42 1.45 1.46 1.48 1.54 1.54 1.52 1.61 1.73 1.58 1.43 1.36 1.29 1.15 0.96 0.86 0.82 0.80 0.78
1.29 1.25 1.26 1.21 1.18 1.24 1.27 1.32 1.30 1.25 1.17 1.15 1.11 1.13 1.16 1.22 1.23 1.29 1.32 1.37 1.41 1.39 1.30 1.32 1.38 1.42 1.45 1.45 1.47 1.51 1.53 1.53 1.75 1.62 1.47 1.41 1.27 1.14 0.96 0.86 0.81 0.81 0.77
1.42 1.33 1.27 1.29 1.30 1.33 1.29 1.29 1.30 1.21 1.16 1.11 1.08 1.13 1.14 1.19 1.18 1.21 1.24 1.21 1.25 1.30 1.26 1.30 1.37 1.40 1.42 1.40 1.39 1.46 1.50 1.46 1.61 1.69 1.51 1.40 1.28 1.16 0.97 0.87 0.82 0.80 0.77
1.51 1.38 1.34 1.34 1.38 1.37 1.28 1.25 1.28 1.23 1.14 1.10 1.10 1.18 1.18 1.16 1.17 1.17 1.15 1.11 1.13 1.19 1.23 1.25 1.35 1.41 1.40 1.39 1.36 1.41 1.48 1.51 1.50 1.70 1.56 1.40 1.32 1.20 1.02 0.90 0.82 0.80 0.78
1.54 1.45 1.39 1.37 1.46 1.45 1.40 1.30 1.23 1.25 1.15 1.15 1.12 1.15 1.19 1.19 1.19 1.18 1.13 1.11 1.07 1.11 1.16 1.22 1.31 1.33 1.32 1.37 1.42 1.44 1.49 1.56 1.57 1.67 1.58 1.42 1.37 1.29 1.07 0.97 0.82 0.79 0.76
1.68 1.53 1.45 1.49 1.49 1.46 1.38 1.42 1.31 1.23 1.15 1.21 1.15 1.11 1.14 1.21 1.16 1.18 1.16 1.12 1.08 1.06 1.11 1.15 1.18 1.23 1.28 1.33 1.38 1.43 1.50 1.57 1.62 1.65 1.61 1.46 1.43 1.36 1.11 1.02 0.85 0.78 0.74
1.49 1.67 1.63 1.49 1.49 1.47 1.51 1.43 1.39 1.26 1.25 1.24 1.07 1.04 0.86 1.00 1.10 1.18 1.20 1.13 1.06 1.07 1.04 1.08 1.13 1.18 1.25 1.35 1.38 1.44 1.54 1.65 1.67 1.68 1.62 1.54 1.49 1.30 1.07 1.00 0.89 0.78 0.72
1.10 1.33 1.46 1.41 1.54 1.60 1.54 1.53 1.41 1.32 1.18 1.24 1.23 1.03 0.86 0.73 0.85 1.07 1.11 1.12 1.07 1.05 1.05 1.04 1.08 1.12 1.20 1.29 1.35 1.37 1.47 1.52 1.74 1.69 1.64 1.61 1.49 1.33 1.06 0.94 0.86 0.78 0.77
0.95 1.08 1.17 1.34 1.37 1.38 1.52 1.48 1.45 1.45 1.36 1.14 1.22 1.20 1.07 0.95 0.75 0.69 0.95 1.02 1.10 1.07 1.07 1.06 1.03 1.09 1.19 1.21 1.30 1.35 1.35 1.47 1.55 1.62 1.62 1.63 1.54 1.40 1.13 0.93 0.80 0.78 0.77
0.74 0.92 1.01 1.10 1.18 1.28 1.28 1.37 1.46 1.40 1.34 1.26 1.18 1.10 1.09 1.04 1.00 0.85 0.71 0.84 1.06 1.10 1.12 1.09 1.05 1.06 1.16 1.20 1.24 1.36 1.31 1.44 1.53 1.55 1.53 1.61 1.57 1.42 1.19 0.98 0.81 0.77 0.77
0.53 0.61 0.84 0.94 1.07 1.14 1.20 1.24 1.25 1.32 1.29 1.21 1.26 1.23 1.10 0.97 0.92 0.94 0.87 0.86 0.89 1.02 1.12 1.11 1.09 1.03 1.15 1.23 1.28 1.31 1.32 1.32 1.37 1.45 1.55 1.62 1.56 1.47 1.30 1.04 0.88 0.78 0.78
0.47 0.50 0.58 0.71 0.89 1.08 1.10 1.28 1.33 1.27 1.23 1.20 1.15 1.15 1.22 1.15 1.08 1.04 1.00 0.92 0.88 1.02 1.06 1.11 1.11 1.08 1.11 1.22 1.29 1.32 1.35 1.33 1.30 1.36 1.44 1.57 1.58 1.54 1.40 1.18 0.95 0.83 0.80
0.52 0.54 0.53 0.58 0.66 0.88 1.04 1.08 1.37 1.34 1.29 1.16 1.17 1.21 1.23 1.22 1.21 1.11 1.02 0.99 0.91 0.97 1.00 0.96 1.13 1.12 1.09 1.17 1.26 1.33 1.35 1.31 1.30 1.35 1.38 1.44 1.48 1.55 1.48 1.33 1.11 0.92 0.83
0.55 0.58 0.61 0.58 0.60 0.70 0.98 1.02 1.07 1.28 1.33 1.19 1.19 1.21 1.18 1.24 1.30 1.25 1.14 1.08 0.96 0.86 0.87 0.96 0.97 1.12 1.09 1.14 1.17 1.23 1.26 1.31 1.32 1.31 1.33 1.40 1.45 1.49 1.49 1.44 1.29 1.07 0.91
0.62 0.65 0.68 0.68 0.65 0.65 0.84 1.06 0.93 0.93 1.10 1.16 1.21 1.18 1.17 1.20 1.30 1.26 1.19 1.15 1.12 1.09 0.95 1.04 1.03 1.05 1.11 1.09 1.16 1.18 1.19 1.24 1.26 1.28 1.31 1.34 1.38 1.46 1.49 1.46 1.40 1.24 1.04
0.71 0.75 0.81 0.83 0.80 0.71 0.70 0.96 0.96 0.88 1.02 1.12 1.20 1.10 1.13 1.27 1.27 1.27 1.20 1.16 1.18 1.08 1.04 1.12 1.08 1.06 1.08 1.02 1.12 1.18 1.20 1.16 1.18 1.20 1.23 1.28 1.34 1.38 1.43 1.43 1.39 1.32 1.20
0.85 0.90 0.93 0.94 0.94 0.86 0.74 0.91 0.91 0.96 1.03 1.11 1.09 1.04 1.13 1.25 1.21 1.26 1.18 1.05 0.99 1.20 1.25 1.05 1.06 1.03 1.08 1.06 1.11 1.13 1.15 1.17 1.15 1.15 1.19 1.24 1.31 1.36 1.38 1.38 1.35 1.36 1.34
0.90 0.97 1.00 1.02 1.00 0.92 0.84 0.89 0.99 1.02 1.08 1.08 1.11 1.08 1.14 1.23 1.18 1.20 1.16 1.13 1.08 1.22 1.28 1.14 1.03 1.12 1.12 1.07 1.07 1.10 1.08 1.08 1.15 1.18 1.19 1.25 1.25 1.31 1.33 1.34 1.27 1.31 1.33
0.89 0.94 0.97 1.00 1.01 1.00 1.00 0.98 1.06 1.07 1.13 1.21 1.18 1.17 1.18 1.19 1.19 1.22 1.26 1.28 1.28 1.26 1.25 1.18 1.13 1.09 1.09 1.06 1.07 0.96 0.91 0.98 1.00 1.11 1.18 1.23 1.24 1.25 1.26 1.30 1.28 1.24 1.28
0.86 0.90 0.96 0.99 1.02 1.00 1.02 1.07 1.13 1.14 1.19 1.21 1.14 1.18 1.17 1.17 1.23 1.32 1.27 1.23 1.20 1.18 1.21 1.18 1.14 1.10 1.02 0.95 0.90 0.91 0.89 0.93 0.94 1.01 1.06 1.10 1.12 1.17 1.22 1.25 1.20 1.18 1.25
0.82 0.87 0.90 0.88 0.92 0.95 1.00 1.12 1.25 1.24 1.26 1.15 1.07 1.09 1.09 1.13 1.23 1.26 1.23 1.18 1.19 1.18 1.16 1.14 1.08 1.00 0.93 0.92 0.96 0.90 0.86 0.83 0.79 1.01 1.04 0.99 1.10 1.10 1.13 1.19 1.19 1.18 1.20
0.77 0.80 0.84 0.87 0.90 0.92 0.95 1.01 1.01 1.17 1.04 1.04 1.02 1.06 1.07 1.10 1.13 1.12 1.10 1.11 1.13 1.17 1.18 1.16 1.03 0.93 0.87 0.88 0.88 0.88 0.88 0.87 0.85 0.96 0.98 0.94 1.05 1.03 1.10 1.14 1.18 1.18 1.18
0.76 0.78 0.80 0.85 0.84 0.89 0.99 0.96 0.93 1.02 0.98 0.96 0.97 0.96 1.00 1.05 1.05 1.07 1.07 1.07 1.03 1.08 1.06 1.05 1.01 0.92 0.87 0.90 0.89 0.90 0.91 0.87 0.88 0.91 0.94 0.86 0.97 0.96 1.01 1.03 1.07 1.11 1.11
0.71 0.73 0.76 0.79 0.82 0.85 0.87 0.88 0.93 0.88 0.92 0.90 0.95 0.91 0.96 1.00 1.00 1.00 1.02 1.01 0.98 0.98 1.03 1.01 1.00 0.93 0.89 0.89 0.92 0.92 0.84 0.81 0.74 0.78 0.89 0.86 0.87 0.89 0.91 0.92 0.96 0.99 1.00
0.67 0.69 0.71 0.73 0.76 0.77 0.80 0.82 0.84 0.84 0.83 0.84 0.89 0.86 0.90 0.93 0.96 0.93 0.94 0.92 0.90 0.92 0.95 0.95 0.93 0.92 0.90 0.87 0.90 0.90 0.89 0.81 0.78 0.76 0.83 0.81 0.82 0.83 0.77 0.84 0.87 0.90 0.90